GW0418 Weather Reports


Display with metric or nautical units.
time (UTC)temp
F
wind
direction
speed
MPH
gust
MPH
rain 1hr
in
rain 24hr
in
rain mn
in
humidity
%
barometer
mb
20260507013026 41 281 1.0 0.0 0.00 0.00 0.00 59 1015.4
20260507011528 42 255 3.0 0.0 0.00 0.00 0.00 58 1015.4
20260507010029 42 250 3.0 0.0 0.00 0.00 0.00 56 1015.4
20260507004525 42 286 2.0 0.0 0.00 0.00 0.00 57 1015.5
20260507003024 42 281 4.0 0.0 0.00 0.00 0.00 57 1015.6
20260507001527 42 277 4.0 0.0 0.00 0.00 0.00 57 1015.7
20260507000032 42 289 5.0 0.0 0.00 0.00 0.00 55 1015.8
20260506234523 42 256 4.0 0.0 0.00 0.00 0.00 56 1015.9
20260506233023 42 287 5.0 0.0 0.00 0.00 0.00 54 1016.0
20260506231522 42 252 4.0 0.0 0.00 0.00 0.00 54 1016.1
20260506230022 42 252 5.0 0.0 0.00 0.00 0.00 56 1016.2
20260506224521 42 269 4.0 0.0 0.00 0.00 0.00 56 1016.3
20260506223021 42 298 4.0 0.0 0.00 0.00 0.00 55 1016.3
20260506221521 42 286 4.0 0.0 0.00 0.00 0.00 55 1016.4
20260506220023 42 263 6.0 0.0 0.00 0.00 0.00 56 1016.5
20260506214519 42 246 6.0 0.0 0.00 0.00 0.00 57 1016.6
20260506213019 42 266 6.0 0.0 0.00 0.00 0.00 56 1016.6
20260506211520 42 261 5.0 0.0 0.00 0.00 0.00 57 1016.6
20260506210018 42 267 6.0 0.0 0.00 0.00 0.00 56 1016.7
20260506204523 42 267 7.0 0.0 0.00 0.00 0.00 57 1016.8
20260506203018 42 253 7.0 0.0 0.00 0.00 0.00 54 1016.7
20260506201518 42 284 6.0 0.0 0.00 0.00 0.00 54 1016.7
20260506200015 42 275 6.0 0.0 0.00 0.00 0.00 53 1016.7
20260506194517 42 269 5.0 0.0 0.00 0.00 0.00 54 1016.7
20260506193012 42 215 6.0 0.0 0.00 0.00 0.00 54 1016.8
20260506191512 42 360 5.0 0.0 0.00 0.00 0.00 54 1016.7
20260506190010 42 265 5.0 0.0 0.00 0.00 0.00 55 1016.7
20260506184509 41 317 4.0 0.0 0.00 0.00 0.00 55 1016.8
20260506183007 41 307 5.0 0.0 0.00 0.00 0.00 56 1017.1
20260506181504 40 345 5.0 0.0 0.00 0.00 0.00 58 1017.3
20260506180002 40 317 4.0 0.0 0.00 0.00 0.00 62 1017.4
20260506174501 39 290 5.0 0.0 0.00 0.00 0.00 60 1017.5
20260506173106 39 281 4.0 0.0 0.00 0.00 0.00 61 1017.6
20260506171603 39 325 5.0 0.0 0.00 0.00 0.00 61 1017.8
20260506170106 38 268 4.0 0.0 0.00 0.00 0.00 63 1017.8
20260506164602 38 272 4.0 0.0 0.00 0.00 0.00 63 1017.9
20260506163111 38 312 3.0 0.0 0.00 0.00 0.00 63 1018.0
20260506161556 38 331 3.0 0.0 0.00 0.00 0.00 63 1018.1
20260506160051 37 346 3.0 0.0 0.00 0.00 0.00 65 1018.0
20260506154607 37 275 4.0 0.0 0.00 0.00 0.00 63 1018.1
20260506153055 36 16 4.0 0.0 0.00 0.00 0.00 64 1018.1
20260506151548 36 300 4.0 0.0 0.00 0.00 0.00 64 1018.0
20260506150045 37 302 4.0 0.0 0.00 0.00 0.00 64 1017.8
20260506144546 36 263 6.0 0.0 0.00 0.00 0.00 66 1017.9
20260506143056 36 307 5.0 0.0 0.00 0.00 0.00 65 1017.8
20260506141542 36 313 4.0 0.0 0.00 0.00 0.00 66 1017.7
20260506140039 36 293 4.0 0.0 0.00 0.00 0.00 65 1017.6
20260506134536 36 316 4.0 0.0 0.00 0.00 0.00 67 1017.6
20260506133034 36 322 4.0 0.0 0.00 0.00 0.00 67 1017.4
20260506131533 36 331 3.0 0.0 0.00 0.00 0.00 68 1017.3
20260506130031 36 340 4.0 0.0 0.00 0.00 0.00 67 1017.2
20260506124527 35 9 4.0 0.0 0.00 0.00 0.00 68 1017.2
20260506123028 35 295 4.0 0.0 0.00 0.00 0.00 67 1017.1
20260506121524 36 346 4.0 0.0 0.00 0.00 0.00 68 1016.9
20260506120025 35 301 4.0 0.0 0.00 0.00 0.00 68 1016.7
20260506114518 35 287 3.0 0.0 0.00 0.00 0.00 69 1016.5
20260506113018 35 298 3.0 0.0 0.00 0.00 0.00 70 1016.4
20260506111517 35 279 2.0 0.0 0.00 0.00 0.00 69 1016.3
20260506110015 35 305 3.0 0.0 0.00 0.00 0.00 70 1016.2
20260506104513 35 317 3.0 0.0 0.00 0.00 0.00 70 1016.2
20260506103013 35 292 3.0 0.0 0.00 0.00 0.00 71 1016.0
20260506101511 35 288 2.0 0.0 0.00 0.00 0.00 72 1016.0
20260506100011 34 288 2.0 0.0 0.00 0.00 0.00 73 1015.9
20260506094510 34 290 3.0 0.0 0.00 0.00 0.00 73 1015.9
20260506093009 34 288 3.0 0.0 0.00 0.00 0.00 72 1015.8
20260506091508 34 274 3.0 0.0 0.00 0.00 0.00 73 1015.8
20260506090006 34 277 2.0 0.0 0.00 0.00 0.00 73 1015.7
20260506084504 34 223 2.0 0.0 0.00 0.00 0.00 72 1015.7
20260506083002 34 272 3.0 0.0 0.00 0.00 0.00 71 1015.6
20260506081600 34 250 2.0 0.0 0.00 0.00 0.00 72 1015.6
20260506080104 34 287 2.0 0.0 0.00 0.00 0.00 72 1015.7
20260506073100 34 294 2.0 0.0 0.00 0.00 0.00 71 1015.5
20260506071556 34 309 1.0 0.0 0.00 0.00 0.00 72 1015.4
20260506061551 33 260 0.0 0.0 0.00 0.00 0.00 72 1015.4
20260506044543 36 287 2.0 0.0 0.00 0.00 0.00 67 1015.0
20260506043035 36 271 1.0 0.0 0.00 0.00 0.00 67 1014.9
20260506041534 37 294 1.0 0.0 0.00 0.00 0.00 66 1014.7
20260506040051 38 296 1.0 0.0 0.00 0.00 0.00 65 1014.6
20260506034534 38 292 2.0 0.0 0.00 0.00 0.00 63 1014.5
20260506033031 38 334 3.0 0.0 0.00 0.00 0.00 63 1014.4
20260506031544 39 278 3.0 0.0 0.00 0.00 0.00 63 1014.4
20260506030031 39 317 3.0 0.0 0.00 0.00 0.00 62 1014.5
20260506024529 39 332 3.0 0.0 0.00 0.00 0.00 61 1014.5
20260506023027 39 335 3.0 0.0 0.00 0.00 0.00 60 1014.3
20260506021526 40 281 4.0 0.0 0.00 0.00 0.00 59 1014.1
20260506020025 40 324 4.0 0.0 0.00 0.00 0.00 58 1014.0
20260506014522 40 301 3.0 0.0 0.00 0.00 0.00 58 1013.6